Regional Weather Roundup
Issued by NWS

Home | Current Version | Previous Version | Text Only | Print | Product List | Glossary On
Versions: 1 2 3 4 5 6 7 8 9 10 11 12 13 14 15 16 17 18 19 20 21 22 23 24 25 26 27 28 29 30 31 32 33 34 35 36 37 38 39 40 41 42 43 44 45 46 47 48 49 50
063
ASUS43 KMKX 212211
RWRWI

WISCONSIN REGIONAL WEATHER ROUNDUP
NATIONAL WEATHER SERVICE MILWAUKEE/SULLIVAN WI
500 PM CDT MON AUG 21 2017

NOTE: "FAIR" INDICATES FEW OR NO CLOUDS BELOW 12,000 FEET WITH NO
SIGNIFICANT WEATHER AND/OR OBSTRUCTIONS TO VISIBILITY.

WIZ001-002-006>008-014>016-023>028-212300-
NORTHWEST WISCONSIN

CITY           SKY/WX    TMP DP  RH WIND       PRES   REMARKS
SUPERIOR ARPT    N/A     68  62  79 NE5       29.87F
ASHLAND        CLOUDY    67  61  81 E7        29.90F
HAYWARD        CLOUDY    73  63  70 CALM      29.91F
SIREN          CLOUDY    73  65  76 CALM      29.89F
CUMBERLAND     PTSUNNY   72  64  78 S7        29.91F
RICE LAKE      PTSUNNY   73  67  83 S6        29.92F
CHETEK           N/A     73  69  88 S5        29.91F
LADYSMITH      CLOUDY    75  68  77 SW9       29.93F
EAU CLAIRE     LGT RAIN  74  67  78 S13       29.90F
MENOMONIE      CLOUDY    72  67  84 S18G24    29.87F
NEW RICHMOND   CLOUDY    71  64  78 W6        29.92R
OSCEOLA        CLOUDY    72  66  83 SW6       29.94R
$$

WIZ003>005-009-010-017-018-212300-
NORTH CENTRAL WISCONSIN

CITY           SKY/WX    TMP DP  RH WIND       PRES   REMARKS
MANITOWISH WTR CLOUDY    75  66  74 SE6       29.92F
ARBOR VITAE    CLOUDY    77  67  72 S5        29.92F
WOODRUFF       CLOUDY    77  67  72 S5        29.92F
RHINELANDER    TSTM      72  69  90 VRB7      29.94F
EAGLE RIVER    CLOUDY    75  64  68 CALM      29.93F
LAND O LAKES   CLOUDY    73  65  76 CALM      29.96F
PHILLIPS       CLOUDY    75  67  77 S3        29.91F
TOMAHAWK       HVY RAIN  68  65  90 CALM      29.94F
MEDFORD        CLOUDY    70  65  84 S7        29.92F
MERRILL        LGT RAIN  70  68  94 S3        29.95S
$$

WIZ029-030-035-036-043>047-212300-
CENTRAL WISCONSIN

CITY           SKY/WX    TMP DP  RH WIND       PRES   REMARKS
WAUSAU         CLOUDY    74  69  85 W7        29.92F
MOSINEE        PTSUNNY   75  68  78 W8        29.95F
MARSHFIELD     CLOUDY    75  64  68 SW8       29.95F
STEVENS POINT  CLOUDY    76  64  65 SW12G18   29.95F
WAUPACA        PTSUNNY   81  66  61 SW8       29.94F HX  83
WAUTOMA        CLOUDY    79  69  71 SW7       29.95F HX  81
WISC RAPIDS    CLOUDY    78  67  68 SW10      29.97S HX  80
CAMP DOUGLAS   CLOUDY    75  66  73 SW9       29.97R
$$

WIZ011>013-019>022-031-037>040-048>050-212300-
NORTHEAST WISCONSIN

CITY           SKY/WX    TMP DP  RH WIND       PRES   REMARKS
ANTIGO         HVY RAIN  71  67  87 S18G33    29.98R
SHAWANO        CLOUDY    81  68  64 S3        29.92F HX  84
OCONTO         CLOUDY    79  70  73 S7        29.92S HX  82
STURGEON BAY   CLOUDY    77  69  76 S8        29.95R
GREEN BAY      CLOUDY    79  71  76 SW3       29.93F HX  82
MANITOWOC        N/A    N/A N/A N/A MISG        N/A
APPLETON       PTSUNNY   79  63  57 SW7       29.94S HX  80
CLINTONVILLE   CLOUDY    79  64  61 S7        29.92F HX  81
OSHKOSH        MOSUNNY   79  69  71 S6        29.94S HX  81
$$

WIZ032>034-041-042-053>061-212300-
SOUTHWEST WISCONSIN

CITY           SKY/WX    TMP DP  RH WIND       PRES   REMARKS
LA CROSSE      LGT RAIN  76  67  73 CALM      29.96R
SPARTA         CLOUDY    73  66  78 W5        29.98R
VIROQUA        CLOUDY    73  67  83 CALM      30.00F
BOSCOBEL       CLOUDY    81  68  64 W6        29.96R HX  84
PRAIRIE DU CHI PTSUNNY   78  64  61 SW6       29.97R HX  80
PLATTEVILLE    MOSUNNY   79  71  76 S15       29.98F HX  81
$$

WIZ056-057-062-063-064-067-068-212300-
SOUTH CENTRAL WISCONSIN

CITY           SKY/WX    TMP DP  RH WIND       PRES   REMARKS
REEDSBURG      CLOUDY    79  69  70 SW6       29.96R HX  81
BARABOO/DELLS  CLOUDY    79  66  64 W5        29.96R HX  81
LONE ROCK      CLOUDY    80  68  66 W8        29.96R HX  83
MINERAL POINT  MOSUNNY   81  68  65 SW13      29.99R HX  83
MADISON        CLOUDY    80  64  58 S12G22    29.95R HX  82
MIDDLETON      CLOUDY    81  66  59 S12       29.97R HX  83
WATERTOWN      MOSUNNY   81  73  77 S9        29.95R HX  85
MONROE         PTSUNNY   79  64  61 SW17      30.00R HX  81
JANESVILLE     MOSUNNY   84  68  58 S12       29.97R HX  87
$$

WIZ051-052-058>065-066-070>072-212300-
SOUTHEAST WISCONSIN

CITY           SKY/WX    TMP DP  RH WIND       PRES   REMARKS
MILWAUKEE      PTSUNNY   82  72  71 S9        29.96R HX  87
WAUKESHA       SUNNY     79  66  65 SE12      29.97S HX  81
MILWAUKEE/TIMM MOSUNNY   82  66  57 S12       29.97R HX  85
RACINE         SUNNY     81  72  74 S10       29.98R HX  85
KENOSHA        SUNNY     83  71  67 S10       29.97R HX  87
FOND DU LAC    CLOUDY    80  68  66 S3        29.94S HX  83
SHEBOYGAN      PTSUNNY   77  70  79 SE8       29.95S
WEST BEND      CLOUDY    79  72  78 SE8       29.95F HX  82
JUNEAU         CLOUDY    78  69  74 S7        29.96R HX  81
$$

LSZ147-162-212300-
LAKE SUPERIOR

STATION/POSITION TIME  TEMP    WIND        PRES    WAVE
                       AIR SEA DIR/SP/G            HT/PER
                 (UTC) (F)     (DEG/KT/KT) (MB)    (FT/S)
W MID LAKE BUOY  2150   62 61   50/  4/  4 1013.1F   0
DEVILS ISLAND    2200   65      80/  5/  5 1012.8F
PORT WING        2140   72      30/  7/  9 1012.5F
SAXON HARBOR     2140   66     100/  1/  6 1012.9F
$$

LMZ867-665-643>646-212300-
LAKE MICHIGAN

STATION/POSITION TIME  TEMP    WIND        PRES    WAVE
                       AIR SEA DIR/SP/G            HT/PER
                 (UTC) (F)     (DEG/KT/KT) (MB)    (FT/S)
S GREEN BAY BUOY 2200   76 74  230/  2/  2 1013.6
N MID LAKE BUOY  2150   69 69  180/  4/  6 1013.8F   1
NORTHPORT PIER   2140   71     150/  8/ 12 1013.2S
KEWAUNEE LAKESHO 2148   71     180/ 12/ 13 1013.3R
SHEBOYGAN LAKESH 2200   72     170/ 12/ 13 1013.6S
PORT WASHINGTON  2130   78     170/  5/  8 1014.9F
ATWATER BUOY     2109   72 70  160/  8/ 10 1014.5F
MILWAUKEE LAKESH 2150   73     150/ 13/ 15   N/A
S MID LAKE BUOY  2150   73 72  160/ 12/ 12 1014.4F   1/ 3
KENOSHA   LAKESH 2200   76     180/ 13/ 16 1014.6
$$

TC  - TEMPERATURE IN CELSIUS
VSB - VISIBILITY IN STATUTE MILES
WCI - WIND CHILL INDEX
HX  - HEAT INDEX





USA.gov is the U.S. government's official web portal to all federal, state and local government web resources and services.